Weather History for Bishop, CA

Change the Weather History Date:

Tuesday, October 15, 2013

  Actual Average Record
Temperature  
Mean Temperature 53 °F 57 °F  
Max Temperature 70 °F 77 °F 90 °F (1991)
Min Temperature 36 °F 38 °F 23 °F (1966)
Degree Days  
Heating Degree Days 12 8  
Month to date heating degree days 160 87  
Since 1 July heating degree days 216 130  
Cooling Degree Days 0 0  
Month to date cooling degree days 0 7  
Year to date cooling degree days 1337 1103  
Growing Degree Days 4 (Base 50)    
Moisture  
Dew Point 20 °F    
Average Humidity 32    
Maximum Humidity 54    
Minimum Humidity 9    
Precipitation  
Precipitation 0.00 in 0.01 in 0.19 in (1957)
Month to date precipitation 0.13 0.13  
Year to date precipitation 1.24 3.69  
Snow  
Snow 0.00 in 0.00 in - ()
Month to date snowfall 0.0 0.0  
Since 1 July snowfall 0.0 0.0  
Since 1 September snowfall 0.0 0.0  
Snow Depth 0.00 in    
Sea Level Pressure  
Sea Level Pressure 30.09 in    
Wind  
Wind Speed 9 mph (NNW)    
Max Wind Speed 25 mph    
Max Gust Speed 32 mph    
Visibility 10 miles    
Events      
T = Trace of Precipitation, MM = Missing Value Source: NWS Daily Summary

Daily Weather History Graph

Daily Weather History Graph

Search for Another Location

Airport:

Trip Planner

Search our weather history database for the weather conditions in past years. The results will help you decide how hot, cold, wet, or windy it might be!

Date:

Astronomy

Oct. 15, 2013 Rise Set
Actual Time 7:01 AM PDT 6:15 PM PDT
Civil Twilight 6:35 AM PDT 6:42 PM PDT
Nautical Twilight 6:05 AM PDT 7:12 PM PDT
Astronomical Twilight 5:34 AM PDT 7:42 PM PDT
Moon 4:20 PM PDT (10/15) 3:33 AM PDT (10/15)
Length of Visible Light 12h 06m
Length of Day
11h 14m
Waxing Gibbous, 88% of the Moon is Illuminated
Oct 15
Waxing Gibbous
Oct 18
Full
Oct 26
Last Quarter
Nov 3
New
Nov 9
First Quarter

Hourly Weather History & Observations

Time (PDT) Temp. Windchill Dew Point Humidity Pressure Visibility Wind Dir Wind Speed Gust Speed Precip Events Conditions
12:56 AM 46.0 °F - 26.1 °F 46% 30.10 in 10.0 mi Calm Calm - N/A   Clear
1:56 AM 45.0 °F 40.1 °F 25.0 °F 46% 30.09 in 10.0 mi NW 9.2 mph - N/A   Clear
2:56 AM 42.1 °F 40.2 °F 25.0 °F 51% 30.08 in 10.0 mi WNW 3.5 mph - N/A   Clear
3:56 AM 43.0 °F 38.2 °F 25.0 °F 49% 30.08 in 10.0 mi WNW 8.1 mph - N/A   Clear
4:56 AM 39.9 °F 35.8 °F 25.0 °F 55% 30.09 in 10.0 mi WNW 5.8 mph - N/A   Clear
5:56 AM 39.9 °F 36.7 °F 24.1 °F 53% 30.11 in 10.0 mi NW 4.6 mph - N/A   Clear
6:56 AM 43.0 °F 37.7 °F 24.1 °F 47% 30.14 in 10.0 mi WNW 9.2 mph - N/A   Clear
7:56 AM 46.9 °F - 24.1 °F 41% 30.15 in 10.0 mi NNW 11.5 mph - N/A   Clear
8:56 AM 52.0 °F - 25.0 °F 35% 30.17 in 10.0 mi NNW 5.8 mph - N/A   Clear
9:56 AM 57.9 °F - 24.1 °F 27% 30.14 in 10.0 mi North 12.7 mph - N/A   Clear
10:56 AM 61.0 °F - 23.0 °F 23% 30.12 in 10.0 mi NNW 11.5 mph 18.4 mph N/A   Clear
11:56 AM 62.1 °F - 21.0 °F 21% 30.10 in 10.0 mi Variable 5.8 mph - N/A   Clear
12:56 PM 64.9 °F - 18.0 °F 16% 30.06 in 10.0 mi Variable 5.8 mph - N/A   Clear
1:56 PM 66.9 °F - 10.9 °F 11% 30.03 in 10.0 mi North 10.4 mph - N/A   Clear
2:56 PM 70.0 °F - 9.0 °F 9% 30.02 in 10.0 mi North 10.4 mph - N/A   Clear
3:56 PM 69.1 °F - 9.0 °F 10% 30.01 in 10.0 mi North 17.3 mph - N/A   Clear
4:56 PM 66.0 °F - 15.1 °F 14% 30.03 in 10.0 mi North 24.2 mph 28.8 mph N/A   Clear
5:56 PM 61.0 °F - 18.0 °F 19% 30.05 in 10.0 mi North 17.3 mph 27.6 mph N/A   Clear
6:56 PM 57.0 °F - 19.0 °F 23% 30.07 in 10.0 mi North 15.0 mph - N/A   Clear
7:56 PM 55.0 °F - 19.0 °F 24% 30.09 in 10.0 mi North 11.5 mph - N/A   Clear
8:56 PM 53.1 °F - 19.0 °F 26% 30.11 in 10.0 mi North 10.4 mph - N/A   Clear
9:56 PM 48.9 °F - 19.0 °F 31% 30.13 in 10.0 mi Calm Calm - N/A   Clear
10:56 PM 48.0 °F - 18.0 °F 30% 30.14 in 10.0 mi NNW 10.4 mph - N/A   Clear
11:56 PM 44.1 °F - 17.1 °F 34% 30.15 in 10.0 mi Calm Calm - N/A   Clear